Regional Weather Roundup
Issued by NWS Cleveland, OH

Home | Current Version | Previous Version | Graphics & Text | Print | Product List | Glossary On
Versions: 1 2 3 4 5 6 7 8 9 10 11 12 13 14 15 16 17 18 19 20 21 22 23 24 25 26 27 28 29 30 31 32 33 34 35 36 37 38 39 40 41 42 43 44 45 46 47 48 49 50
000
ASUS41 KCLE 011112
RWRCLE
OHIO REGIONAL WEATHER ROUNDUP
NATIONAL WEATHER SERVICE WILMINGTON, OH
700 AM EDT SUN MAY 01 2016

NOTE: "FAIR" INDICATES FEW OR NO CLOUDS BELOW 12,000 FEET WITH NO
SIGNIFICANT WEATHER AND/OR OBSTRUCTIONS TO VISIBILITY.

OHZ001>008-015>018-024>027-034-035-043-044-011200-
   NORTHWEST OHIO

CITY           SKY/WX    TMP DP  RH WIND       PRES   REMARKS
DEFIANCE       CLOUDY    50  48  93 NE5       29.91R
FINDLAY        FOG       52  48  86 N5        29.90R VSB 1/4
TOLEDO EXPRESS CLOUDY    49  48  97 NE7       29.89S FOG
TOLEDO EXEC    FOG       50  48  93 NE7       29.91R VSB 1/2
LIMA           FOG       54  53  97 N7        29.90R VSB 1/2
$$

OHZ009>014-019>023-028>033-038-089-011200-
   NORTHEAST OHIO

CITY           SKY/WX    TMP DP  RH WIND       PRES   REMARKS
CLE-HOPKINS    CLOUDY    56  54  93 NW3       29.90R FOG
CLE-LAKEFRONT  CLOUDY    51  49  92 NE3       29.87R
CUY CO. ARPT   CLOUDY    59  55  88 CALM      29.87  FOG
LORAIN-ELYRIA  CLOUDY    53  51  93 NW3       29.90R FOG
ASHTABULA      CLOUDY    52  52 100 S5        29.88F
AKRON-CANTON   CLOUDY    59  57  93 SW10      29.90R FOG
WOOSTER        CLOUDY    58  57  97 SW10      29.91R FOG
MANSFIELD      CLOUDY    58  58 100 SW9       29.90R FOG
YOUNGSTOWN     CLOUDY    56  55  97 SE6       29.89S FOG
$$

OHZ042-051>053-060>062-070>072-077>081-011200-
  SOUTHWEST OHIO

CITY           SKY/WX    TMP DP  RH WIND       PRES   REMARKS
CINC-COVINGTON LGT RAIN  62  61  96 S7        29.91S
CINC-LUNKEN    FAIR      59  59 100 CALM      29.92S
HAMILTON       LGT RAIN  60  59  96 CALM      29.91F FOG
DAYTON         CLOUDY    61  60  97 SW10      29.93R FOG
WRIGHT-PAT AFB CLOUDY    62  62 100 SW6       29.91R
DAYTON GENERAL FAIR      60  58  92 SW6       29.90S FOG
WILMINGTON     CLOUDY    60  59  96 CALM      29.91R
$$

OHZ036-037-039>041-045>050-054>059-063>069-073>076-082>088-011200-
  CENTRAL AND SOUTHEAST OHIO

CITY           SKY/WX    TMP DP  RH WIND       PRES   REMARKS
COLUMBUS       CLOUDY    58  58 100 S8        29.92R FOG
OSU AIRPORT    CLOUDY    59  58  96 S6        29.92R FOG
BOLTON FIELD   CLOUDY    59  59 100 S8        29.93R
RICKENBACK AFB CLOUDY    59  58  98 S8        29.93R
NEWARK         CLOUDY    62  58  86 SW6       29.92R
MARION         FOG       58  57  97 S8        29.91R VSB 1
LANCASTER      CLOUDY    61  58  90 S7        29.94R
ZANESVILLE     CLOUDY    63  59  87 SW5       29.93R
NEW PHILLY     CLOUDY    61  58  90 SW5       29.91R
$$




USA.gov is the U.S. government's official web portal to all federal, state and local government web resources and services.